NOAA 16 DEB, 41291

Orbit data source: Space-Track

NOAA 16 DEB, 41291 is space debris in SSO originally from a launch on Thu, 21 Sep 2000 UTC launched from the Air Force Western Test Range (AFWTR). Debris objects in space refer to the collection of defunct objects orbiting the Earth. Examples of debris include non-operational satellites, rocket bodies, and fragments generated from explosions, collisions, or faulty payload assembly.

Loading next visibility...
Identifier
41291, 2000-055GT
Orbit
SSO
Country
Flag of USUS
Related business
Manufacturer
Unknown
Mission
Spacecraft
Bus & Motor
Unknown
Mass
Unknown
Launch date (UTC)
2000-09-21 (26 years ago)
Launch vehicle
Unknown
Launch site
Air Force Western Test Range (AFWTR)
Object type
Payload
Rocket body
Debris
Shape & HBR
Unknown shape, 0.1 m
Radar Cross Section
Small (<0.1 m²)

Expand to show TLE details & history
Last TLE update: 6 hours ago

TLE from 6 hours ago
0 NOAA 16 DEB
1 41291U 00055GT  26127.16160323  .00005293  00000-0  11639-2 0  9998
2 41291  98.9844  17.5763 0033181 166.8544 193.3525 14.57627031544737
Epoch: 2026-05-07T03:52Z
TLE epoch observation values (Epoch: 2026-05-07T03:52:42.519Z)
Latitude
0.00004°
Longitude
94.38742°
Altitude
726.666 km
Speed
7.48 km/s
True Right ascension
01h 10m 18s
True Declination
0° 00' 00"
Sunlit
Object was in daylight at epoch
Visualization orbit readout
Latitude
Unknown
Longitude
Unknown
Altitude
Unknown
Speed
Unknown
Apparent Right ascension
Unknown
Apparent Declination
Unknown
Sunlit
N/A
Visualization observer readout
Local Sidereal Time
17:42:07
Azimuth
Unknown
Elevation
Unknown
Doppler factor
Unknown
Orbital elements
Apogee altitude
721.448 km
Perigee altitude
674.489 km
Semi-major axis
7,076.106 km
Eccentricity
0.00332
Inclination
98.9844°
RAAN
17.5763°
Arg. of periapsis
166.8544°
True anomaly
193.26504°
Mean anomaly
193.3525°
Eccentric anomaly
193.30874°
Mean motion
3.64629 °/min
Orbital period
98.73 mins
BSTAR
0.0011639
Loading maneuver chart data...
Computing Atmospheric mass density...
Loading historical data...
Loading historical data...
Loading historical data...
Loading historical data...
Loading historical data...
Loading historical data...
Loading historical data...

Documentation

Showing up to 5 results
|